FW8041 Weather Reports


time (UTC)temp
F
wind
direction
speed
knots
gust
knots
rain 1hr
in
rain 24hr
in
rain mn
in
humidity
%
barometer
mb
20260503184601 62 257 5.2 13.0 0.00 0.00 0.00 45 1002.6
20260503183054 63 231 8.7 16.5 0.00 0.00 0.00 45 1002.8
20260503181549 62 234 7.8 13.0 0.00 0.00 0.00 49 1002.9
20260503180055 61 239 4.3 14.8 0.00 0.00 0.00 48 1003.0
20260503174606 61 231 7.8 13.0 0.00 0.00 0.00 50 1003.2
20260503173055 62 226 4.3 11.3 0.00 0.00 0.00 49 1003.5
20260503171553 60 284 5.2 12.2 0.00 0.00 0.00 54 1003.8
20260503100105 37 0 0.0 0.9 0.00 0.00 0.00 82 1007.2
20260503081553 36 0 0.0 0.0 0.00 0.00 0.00 80 1008.0
20260503071549 36 0 0.9 1.7 0.00 0.00 0.00 81 1008.5
20260503054542 36 0 0.0 0.9 0.00 0.00 0.00 77 1009.8
20260503053044 36 97 0.0 0.9 0.00 0.00 0.00 76 1010.0
20260503051549 36 0 0.0 1.7 0.00 0.00 0.00 75 1010.2
20260503050049 36 90 0.0 1.7 0.00 0.00 0.00 75 1010.4
20260503044548 37 95 0.0 1.7 0.00 0.00 0.00 74 1010.6
20260503043048 37 115 0.9 1.7 0.00 0.00 0.00 74 1010.7
20260503041551 36 106 0.0 2.6 0.00 0.00 0.00 74 1010.8
20260503040048 36 92 0.0 1.7 0.00 0.00 0.00 71 1011.0
20260503034559 37 95 0.9 2.6 0.00 0.00 0.00 69 1011.2
20260503033054 37 140 0.9 3.5 0.00 0.00 0.00 67 1011.5
20260503031553 36 101 0.9 2.6 0.00 0.00 0.00 65 1011.6
20260503030050 37 101 0.0 0.9 0.00 0.00 0.00 60 1011.8
20260503024551 38 123 0.9 2.6 0.00 0.00 0.00 57 1012.2
20260503023044 38 120 0.9 2.6 0.00 0.00 0.00 55 1012.2
20260503021544 39 119 0.0 0.9 0.00 0.00 0.00 54 1012.4
20260503020048 39 116 0.0 3.5 0.00 0.00 0.00 53 1012.7
20260503014600 40 95 0.0 2.6 0.00 0.00 0.00 53 1012.7
20260503013046 41 101 0.0 1.7 0.00 0.00 0.00 51 1012.7
20260503011547 43 81 0.9 4.3 0.00 0.00 0.00 50 1012.8
20260503010052 44 90 3.5 9.6 0.00 0.00 0.00 47 1012.9
20260503004549 45 86 1.7 5.2 0.00 0.00 0.00 46 1012.9
20260503003103 47 30 3.5 7.0 0.00 0.00 0.00 44 1012.8
20260503001606 48 84 2.6 7.0 0.00 0.00 0.00 43 1012.7
20260503000051 49 94 4.3 11.3 0.00 0.00 0.00 41 1012.9
20260502234551 49 83 2.6 9.6 0.00 0.00 0.00 41 1012.9
20260502233043 52 89 0.9 3.5 0.00 0.00 0.00 36 1012.9
20260502231549 53 311 2.6 6.1 0.00 0.00 0.00 36 1012.7
20260502230053 53 38 1.7 8.7 0.00 0.00 0.00 35 1012.8
20260502224549 54 283 0.9 7.0 0.00 0.00 0.00 33 1012.9
20260502223054 54 256 2.6 6.1 0.00 0.00 0.00 32 1012.9
20260502221551 55 232 5.2 9.6 0.00 0.00 0.00 34 1013.0
20260502220051 54 283 3.5 12.2 0.00 0.00 0.00 32 1013.0
20260502214558 54 242 7.8 12.2 0.00 0.00 0.00 32 1013.1
20260502213050 54 313 3.5 10.4 0.00 0.00 0.00 35 1013.0
20260502211549 54 323 5.2 14.8 0.00 0.00 0.00 34 1013.0
20260502210047 54 286 4.3 9.6 0.00 0.00 0.00 34 1013.1
20260502204545 54 286 4.3 9.6 0.00 0.00 0.00 34 1013.4
20260502203044 52 300 2.6 9.6 0.00 0.00 0.00 39 1013.6
20260502201605 53 322 5.2 10.4 0.00 0.00 0.00 36 1013.8
20260502200052 52 291 5.2 9.6 0.00 0.00 0.00 36 1014.0
20260502194548 52 250 3.5 9.6 0.00 0.00 0.00 36 1014.2
20260502193049 53 288 5.2 11.3 0.00 0.00 0.00 40 1014.4
20260502191549 52 289 4.3 13.9 0.00 0.00 0.00 37 1014.6
20260502190048 51 47 4.3 12.2 0.00 0.00 0.00 38 1014.9